TimeEDT,TemperatureF,Dew PointF,Humidity,Sea Level PressureIn,VisibilityMPH,Wind Direction,Wind SpeedMPH,Gust SpeedMPH,PrecipitationIn,Events,Conditions,WindDirDegrees,DateUTC
12:53 AM,64.9,43.0,45,30.12,10.0,SE,11.5,20.7,N/A,,Clear,140,2013-05-04 04:53:00
1:53 AM,63.0,43.0,48,30.12,10.0,SSE,12.7,20.7,N/A,,Clear,150,2013-05-04 05:53:00
2:53 AM,62.1,43.0,50,30.11,10.0,SSE,13.8,-,N/A,,Clear,160,2013-05-04 06:53:00
3:53 AM,60.1,43.0,53,30.10,10.0,SSE,11.5,-,N/A,,Clear,150,2013-05-04 07:53:00
4:53 AM,59.0,43.0,55,30.11,10.0,SSE,11.5,-,N/A,,Clear,150,2013-05-04 08:53:00
5:53 AM,57.0,39.9,53,30.12,10.0,SE,12.7,-,N/A,,Clear,140,2013-05-04 09:53:00
6:53 AM,55.9,37.9,51,30.14,10.0,SE,11.5,-,N/A,,Clear,140,2013-05-04 10:53:00
7:53 AM,55.9,34.0,44,30.15,10.0,SE,9.2,-,N/A,,Clear,140,2013-05-04 11:53:00
8:53 AM,57.9,34.0,41,30.15,10.0,SSE,11.5,23.0,N/A,,Clear,150,2013-05-04 12:53:00
9:53 AM,61.0,32.0,34,30.14,10.0,SE,16.1,21.9,N/A,,Clear,140,2013-05-04 13:53:00
10:53 AM,63.0,30.9,30,30.13,10.0,SSE,12.7,-,N/A,,Clear,160,2013-05-04 14:53:00
11:53 AM,66.0,34.0,30,30.12,10.0,South,15.0,23.0,N/A,,Clear,170,2013-05-04 15:53:00
12:53 PM,66.9,37.9,34,30.12,10.0,SSE,15.0,-,N/A,,Clear,150,2013-05-04 16:53:00
1:53 PM,69.1,37.0,31,30.10,10.0,South,15.0,23.0,N/A,,Clear,170,2013-05-04 17:53:00
2:53 PM,71.1,36.0,28,30.09,10.0,SE,8.1,-,N/A,,Clear,140,2013-05-04 18:53:00
3:53 PM,73.0,33.1,23,30.07,10.0,SSE,15.0,24.2,N/A,,Clear,150,2013-05-04 19:53:00
4:53 PM,73.0,33.1,23,30.06,10.0,SE,11.5,-,N/A,,Clear,130,2013-05-04 20:53:00
5:53 PM,73.0,34.0,24,30.05,10.0,SSE,17.3,20.7,N/A,,Clear,150,2013-05-04 21:53:00
6:53 PM,72.0,32.0,23,30.06,10.0,SSE,16.1,21.9,N/A,,Clear,150,2013-05-04 22:53:00
7:53 PM,68.0,36.0,31,30.06,10.0,SE,8.1,-,N/A,,Clear,140,2013-05-04 23:53:00
8:53 PM,64.9,37.9,37,30.08,10.0,ESE,6.9,-,N/A,,Clear,120,2013-05-05 00:53:00
9:53 PM,63.0,39.9,43,30.09,10.0,ESE,8.1,-,N/A,,Clear,110,2013-05-05 01:53:00
10:53 PM,62.1,41.0,46,30.09,10.0,ESE,8.1,-,N/A,,Clear,110,2013-05-05 02:53:00
11:53 PM,62.1,41.0,46,30.09,10.0,ESE,8.1,-,N/A,,Clear,120,2013-05-05 03:53:00